This is the latest recevied weather packets stored in our database for station/object N5PA. If no packets are shown the sender has not sent any weather packets the latest 10 day(s).
| Time | Temp. | Humidity | Pressure | Rain* | Wind** | Luminosity | Snow |
|---|---|---|---|---|---|---|---|
| 1778094306 | 26.67° C | 72% | 1013.1 hPa | 0 mm | - | 979 W/m² | - |
| 1778094007 | 26.67° C | 72% | 1013.1 hPa | 0 mm | - | 979 W/m² | - |
| 1778093707 | 26.67° C | 69% | 1013.2 hPa | 0 mm | - | 977 W/m² | - |
| 1778093406 | 26.11° C | 68% | 1013.2 hPa | 0 mm | - | 981 W/m² | - |
| 1778093107 | 26.11° C | 64% | 1013.3 hPa | 0 mm | - | 983 W/m² | - |
| 1778092807 | 26.11° C | 61% | 1013.4 hPa | 0 mm | - | 981 W/m² | - |
| 1778092507 | 25.56° C | 61% | 1013.5 hPa | 0 mm | - | 984 W/m² | - |
| 1778092208 | 25.56° C | 60% | 1013.5 hPa | 0 mm | - | 981 W/m² | - |
| 1778091906 | 25.56° C | 60% | 1013.5 hPa | 0 mm | - | 984 W/m² | - |
| 1778091608 | 25.56° C | 59% | 1013.4 hPa | 0 mm | - | 986 W/m² | - |
| 1778091306 | 25.56° C | 58% | 1013.4 hPa | 0 mm | - | 988 W/m² | - |
| 1778091007 | 25° C | 57% | 1013.4 hPa | 0 mm | - | 986 W/m² | - |
| 1778090708 | 25° C | 58% | 1013.6 hPa | 0 mm | - | 984 W/m² | - |
| 1778090405 | 25° C | 55% | 1013.6 hPa | 0 mm | - | 984 W/m² | - |
| 1778090105 | 25° C | 52% | 1013.7 hPa | 0 mm | - | 986 W/m² | - |
| 1778089807 | 25° C | 47% | 1013.8 hPa | 0 mm | - | 986 W/m² | - |
| 1778089507 | 24.44° C | 44% | 1013.9 hPa | 0 mm | - | 986 W/m² | - |
| 1778089207 | 24.44° C | 41% | 1014 hPa | 0 mm | - | 988 W/m² | - |
| 1778088907 | 24.44° C | 40% | 1014.1 hPa | 0 mm | - | 984 W/m² | - |
| 1778088605 | 24.44° C | 37% | 1014.1 hPa | 0 mm | - | 988 W/m² | - |
| 1778088307 | 24.44° C | 35% | 1014.1 hPa | 0 mm | - | 988 W/m² | - |
| 1778088006 | 24.44° C | 33% | 1014.2 hPa | 0 mm | - | 988 W/m² | - |
| 1778087705 | 24.44° C | 32% | 1014.2 hPa | 0 mm | - | 990 W/m² | - |
| 1778087406 | 23.89° C | 31% | 1014.2 hPa | 0 mm | - | 988 W/m² | - |
| 1778087105 | 23.89° C | 30% | 1014.2 hPa | 0 mm | - | 990 W/m² | - |
* Rain latest hour (hover to see other rain measurements)
** Current wind speed in m/s (hover to see current wind gust speed)